www.pogodaiklimat.ru

Погода и климат >> Архив погоды >> Мозамбик >> Xai Xai


ПОГОДА в Xai Xai

  • Прогноз погоды в Xai Xai
  • Монитор погоды в Xai Xai
  • Климат города

АРХИВ ПОГОДЫ в Xai Xai

Время (UTC), дата Ветер
(напр.,м/с)
 
Видим.   Явления Облачность Т
(С)
Тd
(С)
f
(%)
Тe
(С)
Тes
(С)
Комфортность P
(гПа)
Po
(гПа)
Тmin
(С)
Tmax
(С)
R
(мм)
R24
(мм)
S
(см)
00 11.12 Ю 4 30 км 6/6 600 м
[Cu med, cong]
+23.3 +18.7 75 +29 +29 душно 1013.9 1014.0
03 11.12 Ю 4 30 км 8/8 600 м
[Cu med, cong]
+22.9 +18.3 75 +29 +29 очень
душно
1013.8 1014.0
06 11.12 ЮЗ 6 30 км 10/10 600 м
[Cu Sc]
+24.3 +19.0 72 +29 +29 душно 1015.6 1016.0 +21.7 1
09 11.12 Ю 5 30 км 8/4 600 м
[Cu med, cong Ac trans]
+26.0 +19.4 67 +31 +35 очень
душно
1015.2 1015.0
12 11.12 Ю 7 30 км 6/4 600 м
[Cu med, cong Ac trans]
+25.7 +19.2 67 +31 +33 очень
душно
1014.5 1015.0
15 11.12 Ю 6 30 км в посл. час дождь 8/6 600 м
[Cu med, cong Ac trans]
+24.5 +19.1 72 +29 +30 душно 1014.4 1014.0
18 11.12 Ю 6 30 км 1/1 600 м
[Cu med, cong]
+23.2 +19.3 79 +30 +30 очень
душно
1014.5 1015.0 +26.5
21 11.12 Ю 5 30 км 1/1 600 м
[Cu hum]
+22.5 +19.4 83 +29 +29 очень
душно
1014.7 1015.0
00 12.12 штиль 0 30 км 1/1 600 м
[Cu hum]
+21.0 +19.4 91 +25 +25 комфорт 1013.5 1014.0
03 12.12 штиль 0 30 км 3/3 600 м
[Cu med, cong]
+18.6 +18.3 98 +20 +20 1013.2 1013.0
06 12.12 штиль 0 30 км 4/4 600 м
[Cu med, cong]
+23.5 +19.6 79 +29 +36 душно 1013.6 1014.0 +18.6 1
09 12.12 ЮВ 2 30 км 3/3 600 м
[Cu med, cong]
+28.4 +15.6 46 +31 +48 душно 1012.2 1012.0
12 12.12 Ю 2 30 км ясно +29.0 +17.0 48 +33 +49 очень
душно
1010.3 1010.0
15 12.12 ЮВ 5 30 км ясно +27.5 +16.2 50 +31 +32 душно 1009.0 1009.0
18 12.12 В 5 30 км ясно +23.6 +18.7 74 +28 +28 душно 1009.7 1010.0 +29.0
21 12.12 В 6 30 км ясно +23.2 +17.2 69 +28 +28 душно 1010.8 1011.0
00 13.12 СВ 5 30 км ясно +22.7 +20.7 88 +30 +30 очень
душно
1010.3 1010.0
03 13.12 СВ 3 30 км 1/1 600 м
[Cu hum]
+22.6 +21.1 91 +30 +30 очень
душно
1011.9 1012.0
06 13.12 С 2 30 км 3/3 600 м
[Cu med, cong]
+27.4 +21.8 72 +35 +42 очень
душно
1014.3 1014.0 +22.5
09 13.12 Ю 4 30 км 1/1 600 м
[Cu med, cong]
+28.3 +22.3 70 +37 +50 очень
душно
1014.8 1015.0
12 13.12 ЮВ 5 30 км ясно +29.0 +21.6 64 +37 +46 очень
душно
1014.8 1015.0
18 13.12 ЮВ 4 30 км 3/3 600 м
[Cu med, cong]
+25.4 +22.6 85 +33 +33 очень
душно
1014.7 1015.0 +30.6
21 13.12 ЮВ 3 30 км 3/3 600 м
[Cu med, cong]
+24.1 +22.5 91 +32 +32 очень
душно
1017.9 1018.0
00 14.12 штиль 0 30 км ясно +23.0 +22.3 96 +31 +31 очень
душно
1016.7 1017.0
03 14.12 штиль 0 30 км 6/6 600 м
[Cu med, cong]
+23.5 +21.7 90 +30 +30 очень
душно
1017.9 1018.0
06 14.12 Ю 2 30 км 9/9 600 м
[Cu med, cong]
+24.0 +22.5 91 +31 +32 очень
душно
1019.1 1019.0 +22.5
09 14.12 Ю 3 30 км 6/6 600 м
[Cu med, cong]
+29.0 +21.3 63 +37 +44 очень
душно
1018.5 1019.0
12 14.12 Ю 4 30 км 3/3 600 м
[Cu med, cong]
+29.7 +21.2 60 +37 +46 очень
душно
1017.0 1017.0
15 14.12 ЮВ 4 30 км 3/3 600 м
[Cu med, cong]
+27.2 +21.7 72 +35 +36 очень
душно
1015.5 1016.0
18 14.12 ЮВ 4 30 км ясно +24.7 +21.6 83 +32 +32 очень
душно
1016.1 1016.0 +30.2
21 14.12 ЮВ 3 30 км 3/3 600 м
[Cu med, cong]
+23.5 +21.7 90 +30 +30 очень
душно
1017.7 1018.0
00 15.12 ЮВ 3 30 км ясно +22.0 +21.1 95 +28 +28 душно 1018.0 1018.0
03 15.12 В 2 30 км 1/1 600 м
[Cu med, cong Ci fib]
+21.4 +20.5 95 +27 +27 душно 1016.6 1017.0
06 15.12 С 3 30 км 6/6 600 м
[Cu med, cong]
+26.4 +21.8 76 +34 +37 очень
душно
1017.3 1017.0 +21.3
09 15.12 ЮЗ 3 30 км 5/5 600 м
[Cu med, cong]
+29.6 +21.9 63 +38 +48 очень
душно
1016.3 1016.0
12 15.12 ЮВ 4 30 км 1/1 600 м
[Cu hum]
+29.5 +20.8 60 +37 +47 очень
душно
1014.3 1014.0
15 15.12 ЮВ 5 30 км 1/0 2000 м
[Ac lent Ci fib]
+28.6 +21.1 64 +36 +37 очень
душно
1012.5 1013.0
18 15.12 В 4 30 км ясно +25.0 +22.2 84 +32 +32 очень
душно
1013.0 1013.0 +30.3
21 15.12 ЮВ 3 30 км 5/5 600 м
[Cu med, cong]
+24.0 +21.4 85 +30 +30 очень
душно
1015.9 1016.0
00 16.12 ЮВ 2 30 км ясно +24.0 +21.9 88 +31 +31 очень
душно
1016.4 1016.0
03 16.12 Ю 2 30 км 4/3 600 м
[Cu med, cong Ac trans]
+22.7 +20.6 88 +30 +30 очень
душно
1017.6 1018.0
06 16.12 С 2 30 км 4/3 600 м
[Cu med, cong Ci fib]
+27.3 +21.5 71 +35 +41 очень
душно
1016.4 1016.0 +22.7
18 16.12 ЮВ 5 30 км 1/1 600 м
[Cu hum Ci fib]
+25.2 +22.8 87 +33 +33 очень
душно
1013.6 1014.0 +30.9
21 16.12 ЮВ 5 30 км 3/1 600 м
[Cu hum Ci fib]
+24.6 +22.8 90 +33 +33 очень
душно
1014.9 1015.0
00 17.12 штиль 0 30 км 1/0
[Ci fib]
+22.9 +22.0 95 +31 +31 очень
душно
1014.6 1015.0
03 17.12 штиль 0 30 км 1/1 600 м
[Cu med, cong]
+21.5 +20.7 95 +27 +27 душно 1014.8 1015.0
06 17.12 штиль 0 30 км 8/8 600 м
[Cu med, cong]
+27.0 +22.6 77 +36 +38 очень
душно
1015.6 1016.0 +21.5

 

Местоположение метеостанции Xai Xai (Мозамбик): широта -25.05 долгота 33.63 высота над уровнем моря 5 м.

В архиве по умолчанию представлена погода в Xai Xai за последнюю неделю. Архивные данные за месяц целиком и за предыдущие месяцы, начиная с января 2011 года, Вы можете получить, выбрав интересующий диапазон дат из раскрывающегося списка и нажав кнопку "Ввод!".


*Определитесь, кто Вы:
робот инопланетянин человек

Внимание! Время в таблицах - всемирное. Для получения местного времени необходимо прибавить поправку, которая в Xai Xai равна 2 ч.

Смотрите также архив погоды в соседних городах и на ближайших метеорологических станциях:

Погода в Panda (Мозамбик) (119 км)
Погода в Maputo (Мозамбик) (143 км)
Погода в Komatidraai (Южная Африка) (181 км)
Погода в Changalane (Мозамбик) (200 км)
Погода в Skukuza (Южная Африка) (205 км)
Погода в Vuvulane (Свазиленд) (205 км)
Погода в Inhambane (Мозамбик) (220 км)
Погода в Siteki (Свазиленд) (228 км)
Погода в Mayiwane (Свазиленд) (232 км)
Погода в Piggs Peak (Свазиленд) (260 км)

Пояснения к столбцам:

Ветер - указаны скорость ветра в м/с - средняя за 10 мин, порывы в срок и между сроками (в фигурных скобках) и направление, откуда дует ветер: С - северный, СВ - северо-восточный, В - восточный, ЮВ - юго-восточный, Ю - южный, ЮЗ - юго-западный, З - западный, СЗ - северо-западный.
Видимость - горизонтальная дальность видимости в метрах или километрах. При видимости от 1 до 10 км при отсутствии осадков обычно наблюдается дымка, при ухудшении видимости до 1 км и менее - туман. В сухую погоду видимость может ухудшаться дымом, пылью или мглою.
Явления - указаны атмосферные явления, наблюдавшиеся в срок или в последний час перед сроком; фигурными скобками обозначены явления, наблюдавшиеся между сроками (за 1-3 часа до срока); квадратными скобками обозначены град или гололедные отложения с указанием их диаметра в мм.
Облачность - указаны через наклонную черту общая и нижняя облачность в баллах и высота нижней границы облаков в метрах; квадратными скобками обозначены формы облаков: Ci - перистые, Cs - перисто-слоистые, Cc - перисто-кучевые, Ac - высококучевые, As - высокослоистые, Sc - слоисто-кучевые, Ns - слоисто-дождевые, Cu - кучевые, Cb - кучево-дождевые. Подробнее классификацию облаков см. в Атласе облаков (PDF).
T - Температура воздуха - температура, измеренная на высоте 2 м над землей.
Td - Температура точки росы - температура, при понижении до которой содержащийся в воздухе водяной пар достигнет насыщения.
f - Относительная влажность воздуха - влажноcть воздуха, измеренная на высоте 2 м над землей.
Te - Эффективная температура - температура, которую ощущает одетый по сезону человек в тени. Характеристика душности погоды. При расчете учитывается влияние влажности воздуха и скорости ветра на теплоощущения человека.
Tes - Эффективная температура на солнце - температура, которую ощущает человек, с поправкой на солнечный нагрев. Характеристика знойности погоды. Зависит от высоты солнца над горизонтом, облачности и скорости ветра. Ночью, в пасмурную погоду, а также при ветре 12 м/с и более поправка равна нулю.
P - Атмосферное давление - приведенное к уровню моря атмосферное давление.
Po - Атмосферное давление - измеренное на уровне метеостанции атмосферное давление.
Tmin - Минимальная температура - минимум температуры воздуха на высоте 2 м над землей.
Tmax - Максимальная температура - максимум температуры воздуха на высоте 2 м над землей.
R - Количество осадков - Количество выпавших осадков за период времени, мм. При наведении курсора мыши на число - период времени, за который выпало указанное количество осадков.
R24 - Количество осадков - Количество выпавших осадков за 24 часа, мм.
S - Снежный покров - Высота снежного покрова, см. При наведении курсора мыши на число - состояние снежного покрова и степень покрытия местности в баллах.